Regional Weather Roundup
Issued by NWS

Home | Current Version | Previous Version | Graphics & Text | Print | Product List | Glossary On
Versions: 1 2 3 4 5 6 7 8 9 10 11 12 13 14 15 16 17 18 19 20 21 22 23 24 25 26 27 28 29 30 31 32 33 34 35 36 37 38 39 40 41 42 43 44 45 46 47 48 49 50
000
ASUS45 KBOU 272307
RWRCO

WEATHER ROUNDUP FOR COLORADO
NATIONAL WEATHER SERVICE DENVER/BOULDER CO
500 PM MDT MON MAR 27 2017

NOTE: "FAIR" INDICATES FEW OR NO CLOUDS BELOW 12000 FEET WITH NO
SIGNIFICANT WEATHER AND/OR OBSTRUCTIONS TO VISIBILITY.

COZ001>005-013-030-031-280000-
...NORTHWEST COLORADO...

CITY           SKY/WX    TMP DP  RH WIND       PRES   REMARKS
CRAIG          LGT RAIN  44  36  73 NW10      29.84R
HAYDEN         CLOUDY    45  30  57 CALM      29.85R
MEEKER         CLOUDY    48  33  56 N12       29.81F
MOUNT WERNER   NOT AVBL
STEAMBOAT SPGS CLOUDY    42  33  71 SW7G18    29.86R
WALDEN         NOT AVBL
$$

COZ006>008-011-280000-
...WEST CENTRAL VALLEYS...

CITY           SKY/WX    TMP DP  RH WIND       PRES   REMARKS
GRAND JUNCTION PTSUNNY   60  28  29 VRB5      29.74F
MONTROSE       FAIR      58  30  34 W15       29.79F
EAGLE          PTSUNNY   54  23  30 NW12      29.82F
RIFLE          PTSUNNY   62  26  25 SW16      29.76F
DELTA          CLOUDY    59  30  33 SW9       29.78F
NUCLA          CLOUDY    52  32  46 NW12      29.85S
$$

COZ017>023-064>068-280000-
...SOUTHWEST COLORADO...

CITY           SKY/WX    TMP DP  RH WIND       PRES   REMARKS
DURANGO        CLOUDY    52  27  38 S22G33    29.86S
CORTEZ         CLOUDY    57  29  34 W9        29.81F
PAGOSA SPRINGS CLOUDY    48  27  43 SW6G17    29.92S
TELLURIDE      PTSUNNY   43  28  54 S10G17    29.91
WOLF CREEK PAS HVY SNOW  25  25 100 S18G25    30.05S VSB<1/4 WCI  11
$$

COZ009-010-012-014-032>034-037-058>063-280000-
...CENTRAL COLORADO...

CITY           SKY/WX    TMP DP  RH WIND       PRES   REMARKS
ASPEN          FAIR      50  22  33 N8        29.81F
BUENA VISTA    CLOUDY    53  22  30 SE18G29   29.83S
COPPER MTN     CLOUDY    34  18  51 S9        29.97S WCI  26
BERTHOUD PASS  SNOW      23  12  63 SE21      29.98R VSB<1/4 WCI   8
COTTONWOOD PAS FAIR      50  21  32 W10G18    29.90S
GUNNISON       FAIR      52  23  32 E9        29.83F
KREMMLING      CLOUDY    50  34  53 E13       29.86S
LEADVILLE      CLOUDY    43  16  33 S13G18    29.87S
MONARCH PASS   PTSUNNY   32  21  64 S13       30.08F WCI  22
SALIDA         FAIR      58  21  23 S9G20     29.89F
SUNLIGHT       CLOUDY    34  21  60 SW9G20    29.96S WCI  26
WILKERSON PASS CLOUDY    34  27  75 SW7       29.98S WCI  28
$$

COZ069>075-280000-
...SAN LUIS VALLEY/SANGRE DE CRISTO MOUNTAINS...

CITY           SKY/WX    TMP DP  RH WIND       PRES   REMARKS
ALAMOSA        CLOUDY    54  24  31 SW18G28   29.84S
LA VETA PASS   NOT AVBL
SAGUACHE       FAIR      54  23  30 SE7       29.83F
$$

COZ035-036-038>040-280000-
...NORTHERN COLORADO FRONT RANGE...

CITY           SKY/WX    TMP DP  RH WIND       PRES   REMARKS
DENVER INTL AP PTSUNNY   61  30  31 SE15G25   29.77F
DMNS CITY PARK   N/A     59  30  33 SE15      29.76F
AURORA         PTSUNNY   59  31  35 S17       29.79S
FRONT RANGE AP PTSUNNY   63  32  31 SE24G31   29.80F
ERIE MUNI ARPT PTSUNNY   61  24  24 N5        29.76F
BOULDER MUN AP PTSUNNY   59  30  33 W3        29.77F
CENTENNIAL     PTSUNNY   57  31  37 S14       29.78F
BROOMFIELD     PTSUNNY   61  27  27 CALM      29.78F
FORT COLLINS   FAIR      61  30  31 SE6G16    29.78F
LONGMONT       CLOUDY    63  31  30 NW6       29.79S
$$

COZ041-046-047-076>085-087-088-280000-
...PIKES PEAK/PALMER DIVIDE AND SOUTHERN FOOTHILLS...

CITY           SKY/WX    TMP DP  RH WIND       PRES   REMARKS
COLO. SPRINGS  PTSUNNY   57  30  35 S16       29.83F
A. F. ACADEMY  NOT AVBL
SCHRIEVER AFB  FAIR      56  30  36 SE20G35   29.84F
ELLICOTT       NOT AVBL
FALCON         FAIR      54  29  38 S18G28    29.87S
FORT CARSON    PTSUNNY   58  32  37 SE8G18    29.81F
LIMON          FAIR      58  34  40 S20G26    29.83F
MONUMENT HILL  FAIR      52  32  46 S23G30    29.85S
TRINIDAD       FAIR      63  30  28 S16G30    29.78F
$$

COZ042>045-048>051-090-091-280000-
...NORTHEAST COLORADO...

CITY           SKY/WX    TMP DP  RH WIND       PRES   REMARKS
GREELEY ARPT   FAIR      64  29  26 SE12      29.77F
AKRON          FAIR      63  28  26 SE18G25   29.81F
BURLINGTON     FAIR      60  40  47 SE15      29.85F
WRAY           NOT AVBL
STERLING       FAIR      63  32  31 S12       29.79S
HOLYOKE        FAIR      68  32  26 S10G22    29.83F
FORT MORGAN    CLOUDY    64  29  26 SE13G20   29.80F
$$

COZ086-089-092>099-280000-
...SOUTHEAST COLORADO...

CITY           SKY/WX    TMP DP  RH WIND       PRES   REMARKS
PUEBLO         PTSUNNY   66  32  28 SE8       29.76F
LA JUNTA       PTSUNNY   70  31  23 SE15G28   29.75F
LAMAR          PTSUNNY   70  32  24 SE20G26   29.77F
SPRINGFIELD      N/A     66  32  28 S23       29.82F
$$



USA.gov is the U.S. government's official web portal to all federal, state and local government web resources and services.